Location: Bathsheba
(13.2167°N, 59.5167°W)
Time: 23:28:20
(UTC+00:00)

Cosmos 1603 - Pass Details

Date: 18 September 2020
Orbit: 832 x 858 km, 71.0° (Epoch: 20 October)

Event Time Altitude Azimuth Distance (km) Brightness Sun altitude
Rises 23:37:09 0° 345° (NNW) 3,382 7.1 -25.2°
Reaches altitude 10° 23:39:36 10° 346° (NNW) 2,444 6.3 -25.8°
Enters shadow 23:45:05 81° 51° (NE) 846 3.5 -27.1°
